[[{"header":{"parameterUnit":"m.s-1","parameterCategory":2,"la1":30.2991,"la2":30.254,"lo1":-89.0895,"lo2":-89.0444,"dy":0.0017,"dx":0.0017,"nx":28,"ny":28,"refTime":"2023-09-10T21:00:00:Z","depth":"0","parameterNumber":2,"parameterNumberName":"U-component_of_CURRENTS"},"data":[0,0,0,0,0,0,0,0,0,0,0,0,0,0,0,0,0,0,0,0,0,0,0,0,0,0,0,0,0,0,0,0,0,0,0,0,0,0,0,0,0,0,0,0,0,0,0,0,0,0,0,0,0,0,0,0,0,0,0.3727,0.3728,0,0.3789,0.3789,0.379,0.3783,0.3782,0.3781,0.3781,0.3705,0.3704,0.3702,0,0,0,0,0,0,0,0,0,0,0,0,0,0.3653,0.3654,0.3727,0.3728,0.3729,0.3788,0.3789,0.379,0.3783,0.3782,0.3781,0.378,0.3705,0.3704,0.3702,0,0,0,0,0,0,0,0,0,0,0,0,0,0.3696,0.3655,0.3727,0.3733,0.3735,0.3788,0.3789,0.379,0.3784,0.3782,0.3781,0.378,0.3706,0.3704,0.3702,0.3718,0,0,0.3697,0.3696,0,0,0,0,0,0,0,0,0.3694,0.3699,0.3732,0.3733,0.3735,0.3778,0.3736,0.376,0.3784,0.3764,0.3781,0.3779,0.3718,0.3715,0.373,0.3714,0.3711,0.3697,0.3695,0.3695,0.3694,0,0,0,0,0,0,0,0.3691,0.3696,0.3751,0.3733,0.3734,0.375,0.3754,0.3741,0.3744,0.3766,0.3766,0.3774,0.3717,0.3732,0.3728,0.371,0.3697,0.3695,0.3694,0.3693,0.3719,0.3721,0,0,0,0,0,0,0.3684,0.3693,0.3749,0.3753,0.3711,0.3752,0.3757,0.3764,0.3748,0.3745,0.3775,0.3774,0.3736,0.373,0.3725,0.3756,0.3695,0.3693,0.3692,0.3718,0.372,0.3722,0,0,0,0,0,0,0.3682,0.3688,0.3746,0.3725,0.3733,0.3755,0.3764,0.3766,0.3769,0.3757,0.3751,0.3774,0.3735,0.3728,0.3722,0.3752,0.3692,0.3691,0.3715,0.3718,0.3721,0.3808,0,0,0,0,0,0,0.368,0.3687,0.3691,0.3725,0.3734,0.3764,0.3765,0.3769,0.3778,0.3776,0.3753,0.3746,0.3733,0.3725,0.3721,0.3748,0.3689,0.3713,0.3717,0.372,0.3803,0.3814,0.3823,0,0,0,0,0,0.3677,0.368,0.3691,0.3698,0.3739,0.3764,0.377,0.3781,0.3779,0.3778,0.378,0.3746,0.3743,0.3725,0.3719,0.3747,0.3712,0.3716,0.372,0.3799,0.3812,0.3822,0,0,0,0,0,0,0.3632,0.3681,0.3693,0.3706,0.3729,0.3763,0.3767,0.3778,0.3783,0.3776,0.3763,0.3757,0.3765,0.3745,0.3726,0.3767,0.3724,0.3727,0.3786,0.3798,0.3808,0.3841,0.3688,0,0,0,0,0,0.3631,0.3657,0.3691,0.3702,0.3712,0.3741,0.3753,0.3761,0.3773,0.3774,0.3768,0.3767,0.3782,0.3778,0.3774,0.379,0.3805,0.3807,0.3817,0.3825,0.3851,0.3919,0.3938,0.3735,0.3735,0.3734,0,0,0.3613,0.3648,0.3657,0.3697,0.3716,0.3743,0.3743,0.3757,0.3791,0.3763,0.3792,0.379,0.3792,0.3821,0.3823,0.3804,0.3887,0.383,0.3838,0.3859,0.3926,0.3946,0.3964,0.3737,0.3737,0.3736,0,0,0.3603,0.3622,0.3644,0.367,0.3706,0.3732,0.3733,0.3765,0.3786,0.3821,0.382,0.3848,0.3848,0.3879,0.3893,0.3953,0.3933,0.3936,0.4016,0.4082,0.41,0.4116,0.4146,0.4164,0.3945,0.3946,0.3946,0,0.358,0.3613,0.3649,0.368,0.37,0.3727,0.3745,0.3787,0.3816,0.3848,0.3832,0.3906,0.3894,0.3972,0.4001,0.3978,0.3997,0.397,0.4097,0.4113,0.4128,0.4155,0.4174,0.395,0.395,0.3949,0.3949,0,0.3597,0.3618,0.3627,0.3688,0.3716,0.3728,0.3789,0.3823,0.3854,0.3901,0.3975,0.3997,0.4046,0.4051,0.4048,0.415,0.4122,0.4098,0.407,0.4154,0.4176,0.4194,0.3957,0.3955,0.3954,0.3953,0,0,0.355,0.3624,0.3628,0.3656,0.3715,0.3742,0.3809,0.3881,0.3936,0.3999,0.4082,0.415,0.4173,0.4192,0.4198,0.4266,0.4379,0.4235,0.4236,0.4269,0.451,0.4418,0.4428,0.4379,0.4383,0.4386,0.4478,0,0.3544,0.36,0.3641,0.3687,0.3711,0.3768,0.3832,0.3911,0.3975,0.4062,0.4151,0.4214,0.4226,0.4246,0.4333,0.4365,0.4433,0.4356,0.442,0.4422,0.4335,0.4449,0.4241,0.43,0.4495,0.4498,0.45,0,0.3544,0.3585,0.3623,0.3698,0.3714,0.3751,0.3853,0.3917,0.4055,0.4105,0.4218,0.4272,0.4409,0.4383,0.4549,0.4498,0.4522,0.4547,0.455,0.4453,0.4365,0.425,0.4324,0.4228,0.4528,0.4525,0.4523,0,0.3511,0.3571,0.3602,0.3626,0.3717,0.3752,0.3807,0.3925,0.4004,0.4133,0.4215,0.4354,0.445,0.4533,0.4621,0.4585,0.4781,0.4722,0.4667,0.4658,0.4489,0.4459,0.4483,0.4836,0.4836,0.4835,0.4835,0,0.3499,0.3525,0.3586,0.3611,0.3652,0.3728,0.3801,0.3874,0.4011,0.4111,0.424,0.4349,0.4499,0.4631,0.4665,0.4746,0.4824,0.4716,0.4698,0.4509,0.4481,0.4392,0.4352,0.4839,0.4838,0.4837,0.4837,0,0.3478,0.351,0.3546,0.3618,0.3637,0.3674,0.3792,0.386,0.3992,0.4132,0.4184,0.4395,0.4545,0.468,0.4808,0.4803,0.4723,0.4854,0.4609,0.4561,0.4367,0.4338,0.4198,0.4082,0.4794,0.4793,0.4792,0,0.3474,0.3489,0.3541,0.3547,0.3575,0.364,0.3688,0.3821,0.3893,0.4146,0.4208,0.4423,0.4541,0.473,0.4723,0.4774,0.4678,0.4607,0.45,0.4366,0.4322,0.4156,0.4057,0.4303,0.4298,0.4294,0.4291,0,0.3459,0.3473,0.3508,0.352,0.3545,0.3589,0.3663,0.3725,0.3894,0.4006,0.4145,0.4266,0.4463,0.4433,0.4539,0.4536,0.4367,0.452,0.4459,0.4021,0.3767,0.364,0.4219,0.4254,0.4258,0.426,0.4262,0.4264,0.3437,0.3446,0.3475,0.3471,0.3499,0.3513,0.3507,0.3603,0.3686,0.38,0.3966,0.4043,0.4154,0.4253,0.4239,0.409,0.4099,0.3969,0.397,0.3834,0.364,0.413,0.4094,0.4096,0.4099,0.4101,0.4103,0,0.3383,0.34,0.3418,0.34,0.3378,0.3417,0.346,0.3427,0.3438,0.357,0.3626,0.3676,0.3683,0.3765,0.3711,0.358,0.3401,0.3499,0.3233,0.3184,0.3693,0.3591,0.335,0.335,0.335,0.335,0.335,0.335,0.3358,0.3338,0.3334,0.3252,0.3238,0.3158,0.3136,0.3112,0.3151,0.313,0.3126,0.3208,0.3408,0.3431,0.3312,0.323,0.3015,0.2835,0.2889,0.3274,0.3318,0.3359,0.3255,0.2947,0.2946,0.2205,0.22,0.2196]},{"header":{"parameterUnit":"m.s-1","parameterCategory":2,"la1":30.2991,"la2":30.254,"lo1":-89.0895,"lo2":-89.0444,"dy":0.0017,"dx":0.0017,"nx":28,"ny":28,"refTime":"2023-09-10T21:00:00:Z","depth":"0","parameterNumber":3,"parameterNumberName":"V-component_of_CURRENTS"},"data":[0,0,0,0,0,0,0,0,0,0,0,0,0,0,0,0,0,0,0,0,0,0,0,0,0,0,0,0,0,0,0,0,0,0,0,0,0,0,0,0,0,0,0,0,0,0,0,0,0,0,0,0,0,0,0,0,0,0,0.0141,0.0141,0,0.0089,0.0088,0.0087,0.004,0.004,0.004,0.004,-0.0037,-0.0039,-0.0041,0,0,0,0,0,0,0,0,0,0,0,0,0,0.013,0.0131,0.0141,0.0141,0.0141,0.0089,0.0088,0.0086,0.004,0.004,0.004,0.004,-0.0036,-0.0038,-0.0041,0,0,0,0,0,0,0,0,0,0,0,0,0,0.0107,0.0131,0.0141,0.0116,0.0114,0.0089,0.0088,0.0086,0.004,0.004,0.004,0.004,-0.0035,-0.0038,-0.0041,-0.006,0,0,-0.0051,-0.0052,0,0,0,0,0,0,0,0,0.0108,0.0106,0.012,0.0118,0.0115,0.0076,0.0056,0.0038,0.004,0.0062,0.004,0.004,0.0003,-0.0003,-0.0021,-0.0064,-0.0067,-0.0051,-0.0053,-0.0054,-0.0055,0,0,0,0,0,0,0,0.011,0.0108,0.0114,0.012,0.0117,0.0084,0.008,0.0052,0.0028,0.006,0.0058,0.0062,0.0001,-0.0018,-0.0024,-0.0069,-0.0051,-0.0053,-0.0055,-0.0057,-0.0144,-0.0145,0,0,0,0,0,0,0.0132,0.011,0.0116,0.0113,0.0118,0.0085,0.0081,0.0084,0.0028,0.0022,0.0062,0.006,-0.0013,-0.002,-0.0026,-0.0045,-0.0054,-0.0057,-0.0059,-0.0144,-0.0144,-0.0145,0,0,0,0,0,0,0.0132,0.0133,0.0118,0.0115,0.0112,0.0086,0.0089,0.0083,0.0074,0.0031,0.0023,0.0062,-0.0013,-0.0022,-0.0051,-0.0049,-0.0058,-0.0061,-0.0143,-0.0144,-0.0144,-0.0088,0,0,0,0,0,0,0.0132,0.0133,0.0141,0.0117,0.0113,0.0121,0.009,0.0082,0.0079,0.0076,0.0028,0.002,-0.0014,-0.0046,-0.0054,-0.0053,-0.0063,-0.0142,-0.0143,-0.0144,-0.0089,-0.0087,-0.0085,0,0,0,0,0,0.0132,0.015,0.0141,0.0142,0.0125,0.0123,0.0118,0.0094,0.0079,0.0083,0.004,0.0022,-0.0058,-0.0049,-0.0058,-0.0058,-0.0142,-0.0143,-0.0144,-0.009,-0.0087,-0.0085,0,0,0,0,0,0,0.0164,0.0147,0.0137,0.0153,0.0146,0.0118,0.0122,0.0104,0.0072,0.0067,0.0018,0.0008,-0.0019,-0.0048,-0.0037,-0.0089,-0.0104,-0.0107,-0.006,-0.0057,-0.0055,-0.0021,-0.0066,0,0,0,0,0,0.0173,0.0174,0.0161,0.0177,0.0175,0.0148,0.0144,0.013,0.0103,0.0089,0.0054,0.001,-0.0033,-0.005,-0.0088,-0.011,-0.0121,-0.0119,-0.0117,-0.0114,-0.0094,-0.0135,-0.0133,-0.0148,-0.0148,-0.0148,0,0,0.0194,0.0185,0.0187,0.0182,0.0171,0.0175,0.0144,0.0149,0.0146,0.0086,0.0068,0.0021,-0.0038,-0.0069,-0.0084,-0.009,-0.011,-0.0116,-0.0113,-0.0094,-0.0135,-0.0134,-0.0132,-0.0149,-0.0149,-0.0149,0,0,0.0235,0.0225,0.0237,0.0232,0.0226,0.0207,0.0214,0.0191,0.0173,0.0152,0.0098,0.0055,0.0003,-0.0045,-0.0077,-0.0083,-0.0097,-0.0096,-0.0054,-0.0093,-0.0092,-0.0091,-0.0072,-0.007,-0.0094,-0.0094,-0.0094,0,0.026,0.0273,0.0245,0.0257,0.0261,0.0226,0.0246,0.0221,0.019,0.0182,0.0159,0.0067,0.0012,-0.0034,-0.0044,-0.0076,-0.0078,-0.0057,-0.0088,-0.0087,-0.0087,-0.0069,-0.0067,-0.0091,-0.0092,-0.0092,-0.0092,0,0.0305,0.0317,0.0329,0.0323,0.0322,0.0338,0.0307,0.0302,0.0274,0.0247,0.0206,0.0123,0.0076,0.0037,-0.0007,-0.0037,-0.003,-0.0078,-0.0087,-0.0081,-0.0063,-0.0062,-0.0088,-0.0088,-0.0089,-0.009,0,0,0.0358,0.0359,0.0364,0.0378,0.036,0.0371,0.0366,0.0357,0.037,0.0309,0.0314,0.0205,0.0169,0.0131,0.0062,0.0015,0.0007,-0.0022,-0.0025,0.0013,-0.0029,-0.0016,-0.0014,-0.0046,-0.0047,-0.0047,-0.0006,0,0.0404,0.0443,0.0424,0.0465,0.0485,0.0455,0.0463,0.0448,0.0419,0.0415,0.032,0.0289,0.0201,0.018,0.012,0.0038,0.0008,0.0004,-0.0054,-0.0054,-0.0032,-0.0014,0.0,0.0037,-0.0005,-0.0005,-0.0005,0,0.0453,0.0473,0.0521,0.0547,0.0555,0.0572,0.0589,0.0589,0.056,0.0535,0.0483,0.0422,0.035,0.0267,0.0152,0.0159,0.008,0.0009,0.0008,0.0003,-0.0041,0.0016,0.004,-0.0129,-0.0004,-0.0004,-0.0004,0,0.0508,0.0542,0.0585,0.0593,0.0612,0.0637,0.0645,0.0634,0.0657,0.0614,0.0643,0.0529,0.0508,0.0373,0.0241,0.0197,0.0133,0.0049,-0.0006,-0.0003,-0.001,-0.0008,-0.0144,-0.0028,-0.0028,-0.0028,-0.0029,0,0.0561,0.0598,0.0622,0.0649,0.0718,0.0704,0.0771,0.0758,0.0772,0.0836,0.0718,0.0753,0.0532,0.0472,0.031,0.019,0.0191,0.0026,0.0002,0.0013,0.0016,-0.0149,-0.0245,-0.0027,-0.0027,-0.0027,-0.0028,0,0.0612,0.0623,0.0684,0.0726,0.0748,0.0797,0.0864,0.0915,0.0916,0.1002,0.1003,0.0937,0.0865,0.0676,0.0483,0.0316,0.0081,0.0117,0.0178,0.0159,-0.0084,-0.0176,-0.0296,-0.0364,0.0057,0.0057,0.0058,0,0.064,0.0679,0.0749,0.08,0.0824,0.0896,0.0959,0.0976,0.1046,0.1136,0.12,0.1163,0.118,0.0925,0.0602,0.0356,0.0157,0.018,0.0066,-0.0072,-0.0194,-0.0266,-0.032,0.0097,0.0097,0.0098,0.0098,0,0.0707,0.0733,0.0785,0.0889,0.0967,0.1053,0.115,0.1234,0.1298,0.141,0.1545,0.1574,0.1344,0.1087,0.0723,0.0518,0.0066,0.0183,0.0001,-0.0194,-0.0243,-0.0326,0.0082,0.0103,0.0103,0.0102,0.0102,0.0102,0.0766,0.082,0.09,0.0995,0.1086,0.1216,0.1316,0.1453,0.1623,0.1819,0.1811,0.1905,0.1504,0.1009,0.0705,0.0139,0.0119,-0.0063,-0.0159,-0.0216,-0.0305,0.015,0.0153,0.0152,0.0152,0.0152,0.0152,0,0.0845,0.091,0.1005,0.113,0.124,0.127,0.1452,0.1581,0.1825,0.2009,0.2147,0.202,0.1537,0.1007,0.0246,-0.0152,-0.0308,-0.0365,-0.0493,-0.0534,-0.016,-0.0186,-0.0209,-0.0209,-0.0209,-0.0209,-0.0208,-0.0208,0.0898,0.1003,0.1048,0.1245,0.1334,0.1505,0.1618,0.1832,0.1998,0.2252,0.2327,0.2335,0.193,0.0602,-0.0308,-0.0516,-0.0779,-0.0825,-0.0959,-0.0748,-0.0729,-0.071,-0.0759,-0.0902,-0.0903,-0.1291,-0.1295,-0.1298]}],[{"header":{"parameterUnit":"m.s-1","parameterCategory":2,"la1":30.2991,"la2":30.254,"lo1":-89.0895,"lo2":-89.0444,"dy":0.0017,"dx":0.0017,"nx":28,"ny":28,"refTime":"2023-09-10T21:00:00:Z","depth":"2","parameterNumber":2,"parameterNumberName":"U-component_of_CURRENTS"},"data":[0,0,0,0,0,0,0,0,0,0,0,0,0,0,0,0,0,0,0,0,0,0,0,0,0,0,0,0,0,0,0,0,0,0,0,0,0,0,0,0,0,0,0,0,0,0,0,0,0,0,0,0,0,0,0,0,0,0,0.2642,0.2643,0,0.2645,0.2644,0.2644,0.2655,0.2655,0.2656,0.2657,0.2716,0.2717,0.2718,0,0,0,0,0,0,0,0,0,0,0,0,0,0.2583,0.2584,0.2642,0.2643,0.2644,0.2645,0.2644,0.2643,0.2654,0.2656,0.2657,0.2658,0.2716,0.2717,0.2718,0,0,0,0,0,0,0,0,0,0,0,0,0,0.2593,0.2584,0.2642,0.2654,0.2656,0.2645,0.2644,0.2643,0.2654,0.2656,0.2657,0.2658,0.2716,0.2717,0.2718,0.2699,0,0,0.2721,0.2722,0,0,0,0,0,0,0,0,0.2593,0.2595,0.2652,0.2653,0.2655,0.2657,0.2645,0.2667,0.2654,0.2648,0.2657,0.2659,0.2705,0.2707,0.2694,0.2701,0.2704,0.2721,0.2722,0.2723,0.2723,0,0,0,0,0,0,0,0.2592,0.2594,0.2636,0.2652,0.2655,0.2638,0.2641,0.2648,0.2665,0.2648,0.2651,0.2661,0.2705,0.2693,0.2696,0.2705,0.2721,0.2722,0.2723,0.2723,0.2799,0.2801,0,0,0,0,0,0,0.2607,0.2594,0.2636,0.2637,0.2634,0.2639,0.2641,0.2649,0.2663,0.2668,0.266,0.2662,0.269,0.2694,0.2698,0.2762,0.2723,0.2724,0.2724,0.2798,0.28,0.2801,0,0,0,0,0,0,0.2606,0.2611,0.2636,0.2621,0.2624,0.264,0.2647,0.2649,0.2682,0.2673,0.2678,0.2699,0.2691,0.2697,0.2743,0.2762,0.2724,0.2725,0.2796,0.2798,0.28,0.2836,0,0,0,0,0,0,0.2604,0.261,0.2631,0.2622,0.2626,0.2656,0.2647,0.2648,0.2687,0.2691,0.2707,0.2711,0.2693,0.2742,0.2744,0.2763,0.2726,0.2795,0.2797,0.28,0.2834,0.2839,0.2845,0,0,0,0,0,0.2602,0.2616,0.2631,0.2638,0.265,0.2658,0.2658,0.2668,0.2689,0.2703,0.2723,0.2713,0.2759,0.2744,0.2747,0.2766,0.2793,0.2797,0.2799,0.2831,0.2838,0.2844,0,0,0,0,0,0,0.2596,0.2619,0.2635,0.2657,0.2674,0.2664,0.2682,0.2697,0.272,0.2731,0.2732,0.2737,0.2783,0.2776,0.276,0.2797,0.2774,0.2778,0.2797,0.2804,0.2809,0.2855,0.2727,0,0,0,0,0,0.2608,0.2618,0.2647,0.2658,0.2684,0.2695,0.2708,0.2712,0.2727,0.274,0.275,0.2766,0.2787,0.2802,0.2808,0.2833,0.2864,0.2848,0.2853,0.2857,0.2899,0.2945,0.2959,0.2811,0.2811,0.2811,0,0,0.2607,0.2618,0.2627,0.2658,0.2675,0.27,0.2705,0.2728,0.2747,0.2743,0.2779,0.279,0.2801,0.2823,0.2842,0.2826,0.2917,0.2861,0.2865,0.2905,0.295,0.2964,0.2977,0.2813,0.2813,0.2812,0,0,0.26,0.2632,0.265,0.2673,0.2709,0.2715,0.274,0.2758,0.2777,0.2808,0.2814,0.2852,0.2867,0.2877,0.2888,0.2936,0.2947,0.2931,0.2993,0.3036,0.3049,0.306,0.3121,0.3138,0.2929,0.2929,0.2929,0,0.2605,0.2625,0.2655,0.2683,0.2706,0.2736,0.2767,0.2784,0.2805,0.2836,0.283,0.2895,0.2896,0.2953,0.2967,0.295,0.2987,0.2961,0.3044,0.3056,0.3067,0.3127,0.3145,0.2931,0.2931,0.293,0.293,0,0.2612,0.2641,0.2656,0.2701,0.2732,0.2752,0.2797,0.2833,0.2863,0.2879,0.2952,0.2958,0.3001,0.3,0.3003,0.3083,0.3088,0.3046,0.3027,0.3085,0.3143,0.3161,0.2934,0.2933,0.2932,0.2932,0,0,0.2576,0.2651,0.2646,0.2687,0.2743,0.2764,0.2824,0.2885,0.2937,0.2968,0.3033,0.3079,0.3099,0.3117,0.3118,0.3167,0.3267,0.3154,0.3155,0.3217,0.3394,0.3283,0.3292,0.3239,0.3243,0.3245,0.3403,0,0.2574,0.2614,0.2651,0.27,0.275,0.2806,0.2856,0.2915,0.2967,0.3028,0.3081,0.3133,0.3135,0.3161,0.3215,0.3252,0.3319,0.3231,0.333,0.3334,0.3228,0.331,0.3043,0.3151,0.3421,0.3424,0.3426,0,0.2573,0.26,0.2648,0.2732,0.276,0.2793,0.2897,0.2945,0.3049,0.3093,0.3175,0.3205,0.3304,0.3274,0.3416,0.3363,0.3406,0.3436,0.344,0.3345,0.3256,0.3137,0.3174,0.3457,0.3454,0.3452,0.345,0,0.2533,0.26,0.2634,0.266,0.2759,0.2806,0.2862,0.297,0.3038,0.3146,0.3207,0.3301,0.3377,0.3439,0.3514,0.3474,0.3664,0.3588,0.3545,0.3538,0.3339,0.3307,0.3711,0.371,0.371,0.371,0.3709,0,0.2514,0.2535,0.2624,0.2643,0.2708,0.2793,0.2878,0.2954,0.3075,0.3155,0.3242,0.3321,0.3432,0.3535,0.3563,0.3628,0.3703,0.3602,0.358,0.3341,0.331,0.3587,0.357,0.3716,0.3714,0.3713,0.3712,0,0.2457,0.2507,0.2573,0.2672,0.27,0.2758,0.2887,0.2953,0.3078,0.319,0.3232,0.3394,0.3511,0.3609,0.373,0.3702,0.3747,0.3753,0.348,0.3422,0.3584,0.3568,0.3709,0.3706,0.3704,0.3703,0.3701,0,0.2433,0.2464,0.2573,0.2616,0.2659,0.2748,0.2806,0.294,0.3009,0.3213,0.3254,0.3433,0.3499,0.3651,0.3644,0.3685,0.3757,0.3459,0.3312,0.3624,0.3589,0.3576,0.3562,0.3077,0.307,0.3065,0.3061,0,0.2407,0.2451,0.2495,0.2571,0.2642,0.2705,0.2792,0.284,0.2996,0.3086,0.3196,0.3271,0.3434,0.3348,0.3433,0.3405,0.3411,0.3349,0.3771,0.3096,0.3033,0.2996,0.3004,0.3014,0.3018,0.3022,0.3024,0.3026,0.2395,0.2414,0.2476,0.2524,0.2602,0.2628,0.2622,0.2705,0.277,0.2857,0.3021,0.305,0.3125,0.3084,0.3006,0.2961,0.3182,0.3038,0.3052,0.3072,0.2949,0.2883,0.2815,0.2819,0.2822,0.2824,0.2827,0,0.2366,0.237,0.2419,0.2466,0.2472,0.2547,0.2579,0.2529,0.2515,0.2653,0.2711,0.2546,0.2524,0.2599,0.2461,0.2459,0.2416,0.2352,0.2276,0.2327,0.2371,0.2208,0.188,0.1876,0.1873,0.187,0,0,0.2352,0.2342,0.2328,0.23,0.2334,0.2286,0.2265,0.2209,0.2235,0.22,0.2218,0.2436,0.2542,0.218,0.2137,0.1984,0.213,0.1904,0.2676,0.2639,0.2678,0.2793,0.2603,0,0,0,0,0]},{"header":{"parameterUnit":"m.s-1","parameterCategory":2,"la1":30.2991,"la2":30.254,"lo1":-89.0895,"lo2":-89.0444,"dy":0.0017,"dx":0.0017,"nx":28,"ny":28,"refTime":"2023-09-10T21:00:00:Z","depth":"2","parameterNumber":3,"parameterNumberName":"V-component_of_CURRENTS"},"data":[0,0,0,0,0,0,0,0,0,0,0,0,0,0,0,0,0,0,0,0,0,0,0,0,0,0,0,0,0,0,0,0,0,0,0,0,0,0,0,0,0,0,0,0,0,0,0,0,0,0,0,0,0,0,0,0,0,0,0.019,0.019,0,0.0163,0.0162,0.0162,0.0127,0.0127,0.0126,0.0126,0.0028,0.0026,0.0024,0,0,0,0,0,0,0,0,0,0,0,0,0,0.0193,0.0193,0.019,0.019,0.0189,0.0163,0.0162,0.0162,0.0127,0.0126,0.0126,0.0125,0.0029,0.0026,0.0024,0,0,0,0,0,0,0,0,0,0,0,0,0,0.018,0.0193,0.019,0.017,0.0168,0.0163,0.0162,0.0162,0.0127,0.0126,0.0126,0.0125,0.003,0.0027,0.0023,0.0016,0,0,0.0013,0.0012,0,0,0,0,0,0,0,0,0.0181,0.018,0.0173,0.0171,0.0169,0.0149,0.0128,0.011,0.0127,0.0141,0.0126,0.0125,0.0063,0.0057,0.0052,0.0011,0.0007,0.0013,0.0011,0.0009,0.0009,0,0,0,0,0,0,0,0.0182,0.0181,0.0177,0.0173,0.0171,0.0156,0.0154,0.0124,0.0104,0.014,0.0138,0.0137,0.0062,0.0056,0.005,0.0005,0.0013,0.001,0.0008,0.0007,-0.0071,-0.0071,0,0,0,0,0,0,0.019,0.0182,0.0178,0.0177,0.0175,0.0157,0.0154,0.0155,0.0105,0.0098,0.0138,0.0136,0.0062,0.0054,0.0046,0.003,0.001,0.0006,0.0005,-0.0071,-0.0071,-0.0071,0,0,0,0,0,0,0.019,0.019,0.018,0.018,0.0178,0.0158,0.0159,0.0155,0.0142,0.0105,0.0096,0.0129,0.0061,0.0051,0.0014,0.0026,0.0005,0.0002,-0.0071,-0.0071,-0.0071,0.0001,0,0,0,0,0,0,0.0191,0.019,0.0194,0.018,0.0178,0.0176,0.016,0.0155,0.0144,0.0141,0.0094,0.0085,0.006,0.0019,0.0011,0.0021,-0.0001,-0.0071,-0.0071,-0.0071,-0.0002,0.0003,0.0007,0,0,0,0,0,0.0191,0.02,0.0194,0.0194,0.0183,0.0177,0.0174,0.0157,0.0144,0.0142,0.0107,0.0086,0.0012,0.0016,0.0006,0.0016,-0.0071,-0.0071,-0.0071,-0.0004,0.0002,0.0007,0,0,0,0,0,0,0.0207,0.0197,0.019,0.0197,0.0187,0.0171,0.0172,0.0156,0.0129,0.0126,0.0082,0.0071,0.0044,0.0015,0.0021,-0.0008,-0.0032,-0.0034,0.0023,0.0028,0.0032,0.0049,-0.0003,0,0,0,0,0,0.0213,0.0215,0.0202,0.0209,0.0205,0.0187,0.0182,0.0173,0.0149,0.0137,0.0103,0.0068,0.0038,0.0021,-0.0011,-0.0028,-0.0055,-0.0029,-0.0025,-0.0021,-0.0015,-0.0047,-0.0044,-0.0072,-0.0072,-0.0072,0,0,0.0223,0.0218,0.022,0.0212,0.0205,0.0211,0.0182,0.0182,0.0187,0.013,0.0118,0.0079,0.0034,0.0018,0.0004,-0.0005,-0.0027,-0.0021,-0.0017,-0.0013,-0.0047,-0.0044,-0.0041,-0.0072,-0.0072,-0.0072,0,0,0.025,0.0239,0.0251,0.0246,0.0239,0.0229,0.0229,0.0211,0.0201,0.0185,0.0147,0.0111,0.0068,0.0041,0.0021,0.0026,-0.0005,0.0018,0.0057,0.0027,0.0029,0.0031,0.0006,0.0005,0.0024,0.0024,0.0024,0,0.0262,0.0278,0.0254,0.0265,0.027,0.0239,0.0258,0.0245,0.0218,0.0216,0.0189,0.0127,0.0081,0.0065,0.0063,0.0038,0.0018,0.0046,0.0035,0.0036,0.0036,0.001,0.0008,0.0027,0.0027,0.0026,0.0026,0,0.0299,0.0311,0.0319,0.0324,0.0322,0.0334,0.0317,0.0313,0.0293,0.0279,0.0253,0.019,0.0157,0.0133,0.0097,0.0083,0.0067,0.0044,0.0028,0.0044,0.0015,0.0011,0.0032,0.0031,0.003,0.0029,0,0,0.033,0.0342,0.0348,0.0366,0.0357,0.0366,0.0373,0.0375,0.0394,0.0346,0.036,0.0285,0.0251,0.0225,0.0175,0.0137,0.0114,0.0097,0.0094,0.0084,0.0054,0.0037,0.0031,0.0093,0.0093,0.0093,0.0035,0,0.0368,0.0411,0.0403,0.0446,0.0467,0.0447,0.0464,0.0461,0.0444,0.0447,0.0381,0.0364,0.0289,0.0275,0.0227,0.0145,0.0107,0.0132,0.003,0.0027,0.0019,0.0027,0.0056,0.0006,0.0031,0.0031,0.003,0,0.041,0.0434,0.0486,0.0522,0.0531,0.0553,0.0582,0.0592,0.0581,0.057,0.0536,0.0481,0.042,0.0353,0.0227,0.025,0.0159,0.0086,0.0082,0.0039,0.0003,-0.0009,-0.0002,0.0024,0.0025,0.0025,0.0026,0,0.0455,0.0495,0.0544,0.0554,0.0584,0.0612,0.0629,0.0634,0.0664,0.0647,0.0666,0.0578,0.0551,0.0423,0.0266,0.0249,0.013,0.0089,-0.0013,-0.0015,-0.0025,-0.0028,-0.0001,-0.0001,-0.0001,-0.0001,-0.0,0,0.0501,0.0541,0.0575,0.0604,0.0676,0.0672,0.0745,0.0749,0.0775,0.0833,0.0737,0.0756,0.0567,0.0474,0.0313,0.0151,0.0167,-0.0003,-0.003,-0.0,0.0,-0.0015,-0.0016,-0.0003,-0.0002,-0.0002,-0.0001,0,0.0547,0.0564,0.0625,0.0676,0.0702,0.0754,0.0832,0.0886,0.0894,0.0968,0.0969,0.0896,0.0773,0.0579,0.0376,0.0228,0.0059,-0.0006,0.0045,0.0023,-0.008,-0.0076,-0.0126,-0.0127,-0.0128,-0.0129,-0.0129,0,0.0572,0.061,0.0688,0.0736,0.0766,0.0844,0.091,0.0946,0.1011,0.1061,0.1109,0.1014,0.0965,0.0663,0.0383,0.0112,0.0067,-0.0044,-0.0086,-0.007,-0.0092,-0.0087,-0.0083,-0.0072,-0.0072,-0.0072,-0.0072,0,0.0624,0.0654,0.0709,0.081,0.0888,0.0981,0.1077,0.1152,0.1212,0.1272,0.1327,0.1286,0.1014,0.0741,0.037,0.0183,-0.0002,-0.0055,-0.0044,-0.0043,-0.0024,-0.0044,-0.0041,-0.0073,-0.0073,-0.0073,-0.0073,-0.0073,0.0664,0.0716,0.0794,0.089,0.0982,0.1107,0.1196,0.13,0.1417,0.1512,0.1479,0.1427,0.1127,0.0646,0.0326,-0.0011,-0.0001,-0.0128,-0.0126,-0.0124,-0.0106,-0.0089,-0.0147,-0.0147,-0.0148,-0.0148,-0.0148,0,0.0709,0.0774,0.0867,0.0983,0.1087,0.1135,0.1299,0.1383,0.1525,0.1608,0.1637,0.1352,0.1047,0.0697,0.0204,-0.0093,-0.0119,-0.0192,-0.0156,-0.0152,-0.0149,-0.0132,-0.0181,-0.0182,-0.0183,-0.0184,0,0,0.0736,0.0828,0.0877,0.1046,0.1136,0.1286,0.1384,0.1507,0.1593,0.166,0.164,0.1574,0.1157,0.0795,0.0393,0.0108,0.0044,0.0046,0.0107,0.0202,0.0208,-0.0077,-0.0042,0,0,0,0,0]}],[{"header":{"parameterUnit":"m.s-1","parameterCategory":2,"la1":30.2991,"la2":30.254,"lo1":-89.0895,"lo2":-89.0444,"dy":0.0017,"dx":0.0017,"nx":28,"ny":28,"refTime":"2023-09-10T21:00:00:Z","depth":"4","parameterNumber":2,"parameterNumberName":"U-component_of_CURRENTS"},"data":[0,0,0,0,0,0,0,0,0,0,0,0,0,0,0,0,0,0,0,0,0,0,0,0,0,0,0,0,0,0,0,0,0,0,0,0,0,0,0,0,0,0,0,0,0,0,0,0,0,0,0,0,0,0,0,0,0,0,0.1478,0.1478,0,0.1516,0.1517,0.1517,0.1558,0.1558,0.1559,0.1559,0.164,0.1641,0.1643,0,0,0,0,0,0,0,0,0,0,0,0,0,0.142,0.1421,0.1478,0.1478,0.1478,0.1516,0.1517,0.1517,0.1558,0.1558,0.1559,0.1559,0.1639,0.1641,0.1643,0,0,0,0,0,0,0,0,0,0,0,0,0,0.1452,0.1422,0.1478,0.1501,0.1504,0.1516,0.1517,0.1518,0.1558,0.1558,0.1559,0.156,0.1638,0.1641,0.1644,0.1649,0,0,0.1652,0.1653,0,0,0,0,0,0,0,0,0.1451,0.1455,0.1498,0.15,0.1502,0.1531,0.1526,0.1563,0.1558,0.154,0.1559,0.156,0.1605,0.1611,0.1619,0.1652,0.1656,0.1652,0.1654,0.1655,0.1656,0,0,0,0,0,0,0,0.1448,0.1453,0.1495,0.1498,0.1501,0.1503,0.1509,0.1533,0.1571,0.1541,0.1544,0.1544,0.1607,0.1616,0.1621,0.1657,0.1652,0.1654,0.1656,0.1657,0.1775,0.1776,0,0,0,0,0,0,0.144,0.1451,0.1494,0.1496,0.1475,0.1504,0.151,0.1523,0.157,0.1577,0.1544,0.1546,0.1612,0.1618,0.1624,0.1701,0.1655,0.1657,0.1659,0.1773,0.1775,0.1776,0,0,0,0,0,0,0.1439,0.1444,0.1492,0.1472,0.1478,0.1504,0.1518,0.1523,0.1565,0.1571,0.158,0.1583,0.1612,0.1621,0.1666,0.1702,0.1658,0.1661,0.1771,0.1774,0.1776,0.181,0,0,0,0,0,0,0.1437,0.1444,0.147,0.1472,0.1479,0.1522,0.1517,0.1524,0.1561,0.1565,0.1607,0.1613,0.1613,0.1662,0.1668,0.1704,0.1663,0.1769,0.1772,0.1775,0.1807,0.1813,0.1819,0,0,0,0,0,0.1435,0.1449,0.1471,0.1477,0.1508,0.1523,0.1528,0.1549,0.1563,0.1588,0.161,0.1613,0.1685,0.1665,0.1672,0.171,0.1768,0.1771,0.1775,0.1804,0.1812,0.1818,0,0,0,0,0,0,0.1436,0.1455,0.1478,0.15,0.1526,0.153,0.1554,0.1569,0.1606,0.1622,0.1629,0.1636,0.1693,0.1697,0.1674,0.1753,0.1729,0.1734,0.1749,0.1757,0.1762,0.1763,0.1665,0,0,0,0,0,0.1449,0.1471,0.1491,0.1515,0.1532,0.1555,0.1571,0.1589,0.1609,0.1628,0.1654,0.1683,0.1708,0.1728,0.1754,0.1794,0.1807,0.1825,0.1831,0.1836,0.1842,0.1885,0.1895,0.1788,0.1788,0.1788,0,0,0.1456,0.147,0.1485,0.1519,0.1543,0.1566,0.1568,0.1603,0.1628,0.1631,0.1687,0.1711,0.1724,0.1769,0.1794,0.1779,0.1876,0.184,0.1844,0.1848,0.1889,0.19,0.1909,0.179,0.179,0.1789,0,0,0.1463,0.1499,0.1521,0.1548,0.1589,0.1597,0.1616,0.1649,0.1677,0.1725,0.1732,0.1771,0.182,0.1826,0.1835,0.1889,0.1908,0.1913,0.194,0.1982,0.1991,0.1999,0.2037,0.2048,0.1912,0.1912,0.1912,0,0.148,0.1504,0.153,0.1559,0.1582,0.1614,0.1642,0.1669,0.1715,0.1744,0.1754,0.1829,0.1841,0.1876,0.1895,0.1902,0.1934,0.1909,0.1989,0.1997,0.2004,0.2042,0.2053,0.1914,0.1914,0.1914,0.1914,0,0.1492,0.1531,0.1546,0.1593,0.1623,0.1653,0.1688,0.1734,0.1772,0.18,0.187,0.1885,0.1931,0.194,0.1935,0.1997,0.2007,0.1993,0.1968,0.2017,0.2054,0.2065,0.1917,0.1916,0.1916,0.1915,0,0,0.1477,0.1543,0.1552,0.1585,0.1646,0.1664,0.1719,0.1769,0.1815,0.187,0.1927,0.1963,0.1996,0.2007,0.2012,0.2038,0.2116,0.2048,0.2049,0.208,0.2225,0.2095,0.2095,0.2128,0.213,0.2131,0.2231,0,0.1486,0.1531,0.1564,0.1618,0.1647,0.1703,0.1746,0.1805,0.1862,0.1929,0.1961,0.2025,0.2013,0.2052,0.2078,0.2111,0.2148,0.2091,0.2178,0.218,0.2053,0.2104,0.2138,0.224,0.2242,0.2244,0.2246,0,0.1481,0.1514,0.1563,0.1636,0.1657,0.17,0.1785,0.1832,0.1927,0.1981,0.2051,0.2094,0.2153,0.2135,0.2216,0.219,0.2222,0.2233,0.2237,0.2109,0.207,0.2179,0.2267,0.2265,0.2263,0.2262,0.2261,0,0.1435,0.1509,0.1545,0.1573,0.1659,0.1709,0.1764,0.186,0.1918,0.2033,0.21,0.2168,0.2232,0.227,0.2313,0.2288,0.2397,0.2358,0.2268,0.226,0.2331,0.2321,0.2424,0.2424,0.2424,0.2424,0.2423,0,0.1408,0.1443,0.1536,0.1559,0.1622,0.1699,0.1779,0.1854,0.1968,0.2038,0.2135,0.2196,0.2277,0.2346,0.2357,0.2351,0.2442,0.2283,0.2277,0.2345,0.2335,0.234,0.2329,0.2427,0.2426,0.2426,0.2425,0,0.1345,0.1406,0.1459,0.1563,0.1605,0.1655,0.1791,0.1842,0.1972,0.2071,0.2121,0.2259,0.2343,0.2404,0.2478,0.2404,0.2409,0.2391,0.2482,0.2478,0.2233,0.2223,0.2282,0.2278,0.2275,0.2272,0.227,0,0.1308,0.133,0.1447,0.1492,0.1549,0.1639,0.1696,0.1831,0.1888,0.2082,0.2115,0.2268,0.2337,0.234,0.2407,0.2425,0.2395,0.238,0.2273,0.2231,0.222,0.2215,0.2209,0.2265,0.2264,0.2263,0.2263,0,0.1245,0.1301,0.1345,0.1432,0.1507,0.1568,0.1669,0.1698,0.1847,0.1986,0.2068,0.2123,0.2219,0.226,0.2307,0.2306,0.2367,0.2346,0.2351,0.225,0.2211,0.2202,0.22,0.2252,0.2253,0.2254,0.2255,0,0.1207,0.1219,0.1291,0.1357,0.1441,0.1475,0.1535,0.1605,0.1681,0.1887,0.1911,0.2066,0.2201,0.2202,0.2237,0.2235,0.2185,0.2087,0.2104,0.2117,0.2013,0.1937,0.1896,0,0,0,0,0,0.1163,0.1169,0.1214,0.1272,0.1344,0.1396,0.1503,0.1561,0.1701,0.1714,0.181,0.189,0.1958,0.2037,0.2001,0.2153,0.2186,0.2099,0.208,0.219,0.2203,0.2093,0,0,0,0,0,0,0.1137,0.1177,0.1178,0.1185,0.1205,0.1267,0.1328,0.1424,0.1436,0.1596,0.1645,0.1773,0.1868,0.1967,0.1967,0.1988,0.1935,0.2198,0.2193,0.2183,0.2195,0.2205,0.2096,0,0,0,0,0]},{"header":{"parameterUnit":"m.s-1","parameterCategory":2,"la1":30.2991,"la2":30.254,"lo1":-89.0895,"lo2":-89.0444,"dy":0.0017,"dx":0.0017,"nx":28,"ny":28,"refTime":"2023-09-10T21:00:00:Z","depth":"4","parameterNumber":3,"parameterNumberName":"V-component_of_CURRENTS"},"data":[0,0,0,0,0,0,0,0,0,0,0,0,0,0,0,0,0,0,0,0,0,0,0,0,0,0,0,0,0,0,0,0,0,0,0,0,0,0,0,0,0,0,0,0,0,0,0,0,0,0,0,0,0,0,0,0,0,0,0.021,0.021,0,0.0193,0.0192,0.0192,0.0177,0.0177,0.0177,0.0177,0.0124,0.0122,0.0121,0,0,0,0,0,0,0,0,0,0,0,0,0,0.0205,0.0205,0.021,0.021,0.021,0.0193,0.0192,0.0192,0.0177,0.0177,0.0177,0.0177,0.0124,0.0122,0.0121,0,0,0,0,0,0,0,0,0,0,0,0,0,0.0197,0.0205,0.021,0.0202,0.0202,0.0193,0.0192,0.0192,0.0177,0.0177,0.0177,0.0177,0.0125,0.0123,0.012,0.0106,0,0,0.0114,0.0113,0,0,0,0,0,0,0,0,0.0198,0.0197,0.0203,0.0203,0.0202,0.0189,0.0171,0.0162,0.0177,0.0184,0.0177,0.0177,0.0143,0.014,0.0134,0.0103,0.0101,0.0113,0.0112,0.0111,0.0111,0,0,0,0,0,0,0,0.0198,0.0198,0.0201,0.0203,0.0203,0.0191,0.019,0.0169,0.0161,0.0184,0.0183,0.0184,0.0142,0.0136,0.0132,0.01,0.0114,0.0112,0.011,0.0109,0.0072,0.0072,0,0,0,0,0,0,0.0206,0.0198,0.0202,0.0201,0.0202,0.0191,0.019,0.0191,0.0162,0.0159,0.0184,0.0184,0.014,0.0135,0.013,0.0137,0.0111,0.0109,0.0108,0.0071,0.0072,0.0072,0,0,0,0,0,0,0.0206,0.0206,0.0202,0.0201,0.02,0.0191,0.0193,0.0191,0.0188,0.0164,0.0159,0.0184,0.014,0.0134,0.0122,0.0133,0.0108,0.0106,0.0071,0.0072,0.0072,0.0132,0,0,0,0,0,0,0.0206,0.0206,0.0211,0.0201,0.02,0.0202,0.0193,0.0191,0.0189,0.0188,0.0162,0.0157,0.0139,0.0125,0.0119,0.013,0.0104,0.0071,0.0071,0.0072,0.013,0.0135,0.0139,0,0,0,0,0,0.0205,0.0214,0.0211,0.0212,0.0206,0.0202,0.02,0.0193,0.0189,0.0189,0.0176,0.0158,0.0125,0.0124,0.0117,0.0127,0.007,0.0071,0.0072,0.0128,0.0134,0.0139,0,0,0,0,0,0,0.0216,0.0213,0.021,0.0217,0.0212,0.02,0.0203,0.0196,0.0185,0.0187,0.0161,0.0155,0.0147,0.0127,0.0127,0.0117,0.0094,0.0094,0.0139,0.0145,0.0149,0.016,0.0103,0,0,0,0,0,0.022,0.0225,0.0218,0.0225,0.0223,0.0213,0.0211,0.0207,0.0197,0.0193,0.0174,0.0157,0.0144,0.0138,0.0118,0.0113,0.0081,0.0115,0.0119,0.0123,0.0127,0.009,0.0092,0.0074,0.0074,0.0074,0,0,0.0227,0.0227,0.023,0.0228,0.0223,0.023,0.0211,0.0214,0.0224,0.0188,0.0192,0.0168,0.0144,0.0142,0.0137,0.0128,0.011,0.0124,0.0128,0.013,0.0091,0.0093,0.0094,0.0075,0.0075,0.0075,0,0,0.0247,0.0242,0.0254,0.0251,0.0251,0.0246,0.0248,0.0238,0.0237,0.0237,0.0216,0.0202,0.0179,0.0168,0.0159,0.0175,0.0132,0.0168,0.0204,0.0168,0.0169,0.017,0.0128,0.0124,0.0174,0.0175,0.0175,0,0.0254,0.027,0.0256,0.0267,0.0274,0.0256,0.0273,0.0269,0.0258,0.026,0.0247,0.0216,0.0194,0.0194,0.0203,0.0186,0.0155,0.0188,0.0175,0.0175,0.0174,0.0131,0.0126,0.0178,0.0177,0.0177,0.0177,0,0.0281,0.0295,0.0302,0.0313,0.0315,0.0326,0.0322,0.0326,0.032,0.0312,0.0305,0.0273,0.0256,0.0247,0.0232,0.0224,0.0198,0.0182,0.0163,0.018,0.0133,0.0127,0.0182,0.0181,0.018,0.0179,0,0,0.0296,0.0318,0.0322,0.0341,0.0343,0.0352,0.0369,0.0378,0.0395,0.0371,0.0381,0.0354,0.0329,0.0317,0.029,0.0262,0.0232,0.0228,0.0225,0.0191,0.0145,0.0123,0.0114,0.0212,0.0212,0.0211,0.0112,0,0.0323,0.0361,0.0363,0.0403,0.0422,0.0417,0.044,0.0445,0.0437,0.0439,0.0404,0.0398,0.0359,0.0355,0.032,0.0254,0.0219,0.0259,0.013,0.0126,0.0109,0.0108,0.0209,0.0107,0.0106,0.0105,0.0104,0,0.0349,0.0375,0.042,0.0461,0.047,0.0495,0.0526,0.0541,0.0535,0.0529,0.0506,0.0468,0.043,0.0394,0.0283,0.031,0.0235,0.0177,0.0172,0.0127,0.0094,0.0086,0.0093,0.0093,0.0094,0.0095,0.0096,0,0.0373,0.0416,0.0459,0.047,0.0509,0.0539,0.0563,0.0572,0.0597,0.0584,0.0589,0.0525,0.05,0.0399,0.0276,0.0279,0.0143,0.013,0.0036,0.0033,0.0055,0.0056,0.0048,0.0049,0.0049,0.0049,0.0049,0,0.0401,0.0437,0.0481,0.0506,0.0571,0.0581,0.0642,0.0654,0.0673,0.0702,0.064,0.0633,0.05,0.0405,0.0288,0.014,0.0146,0.0039,0.0007,0.0082,0.0087,0.005,0.0052,0.0045,0.0046,0.0047,0.0048,0,0.0421,0.0446,0.05,0.0558,0.0587,0.0633,0.071,0.0748,0.0757,0.0789,0.0789,0.0713,0.0586,0.0437,0.0265,0.0162,0.002,-0.0035,0.0051,0.0026,-0.0071,-0.0065,-0.0147,-0.0148,-0.015,-0.0151,-0.0152,0,0.0433,0.0463,0.0544,0.0584,0.0619,0.0692,0.0749,0.0792,0.083,0.0833,0.0848,0.0744,0.067,0.0413,0.0247,0.0012,-0.002,-0.01,-0.0081,-0.0068,-0.009,-0.0082,-0.0075,-0.0154,-0.0154,-0.0155,-0.0155,0,0.0453,0.0484,0.0533,0.062,0.069,0.077,0.085,0.0887,0.0927,0.0935,0.0895,0.0763,0.0616,0.0413,0.0226,0.0059,-0.0051,-0.0115,-0.0113,-0.0095,-0.0077,-0.0097,-0.0088,-0.0159,-0.0159,-0.0158,-0.0158,0,0.0467,0.0503,0.057,0.0648,0.0735,0.0818,0.0865,0.0912,0.0954,0.0957,0.0936,0.0782,0.0694,0.0436,0.0264,0.0095,0.0053,-0.0001,-0.0006,-0.0003,0.0066,0.0112,0.006,0,0,0,0,0,0.0473,0.0518,0.059,0.0676,0.0763,0.0819,0.0917,0.0953,0.0993,0.0975,0.0962,0.0825,0.0571,0.0459,0.0287,0.0226,0.0014,0.0017,-0.0053,-0.0185,-0.0179,-0.0125,0,0,0,0,0,0,0.0474,0.0543,0.0586,0.0687,0.0747,0.085,0.0915,0.0947,0.094,0.0949,0.082,0.0766,0.0521,0.0665,0.0277,0.0225,0.0154,-0.0097,-0.0101,-0.0188,-0.0183,-0.0179,-0.0121,0,0,0,0,0]}]]